sat.trackr.live / text

‹ back to catalog

KUIPER-00294

NORAD 68594 · 2026-072X

PAYLOAD ACTIVE UNKNOWN

§ Identity

Operator
Country
US
Launch date
2026-04-04
Launch site
AFETR
Launch vehicle
Mass (kg)
RCS (m²)

External: N2YO · Heavens-Above · Gunter

§ Orbital elements

Epoch: 2026-09-20T00:35:10.616352Z

Period
97.30 min
Inclination
51.9004°
Eccentricity
0.0000765
Mean motion
14.79929141 rev/d
Perigee alt
629.0 km
Apogee alt
630.1 km
Semi-major
7,007.7 km
B*
9.7416e-5
RAAN
116.2756°
Arg perigee
119.0877°
Mean anomaly
241.0162°
Rev number
2,544

§ Raw data

KUIPER-002941 68594U 26072X   26263.02442843  .00000521  00000+0  97416-4 0  99932 68594  51.9004 116.2756 0000765 119.0877 241.0162 14.79929141 25440

JSON: /api/v1/satellites/68594 · /tle

For live sub-satellite position, see the globe view (requires WebGL).

§ Visibility from observer

Set your observer location to see the next 7 days of passes ≥ 10°. The values pass through the URL so the page stays shareable.

No JS? Fill the form by hand. The geolocation button needs JavaScript.